Theta_e
330 332 335 335 335 336 337 338 339 339 338 338 337 335 334 334 335 336 334 332 329 329 327 327 326 325 325 325 324 324 324 324 326 326 326 326 325 325 325 324 324 324 324 326 326 325 325 326 327 329 329 330 330 331 332 331 331 332 332 332 332 331 331 332 331 330 331 331 331 332 333 331 330 329 327 329 330 330 329 328 327 327 327 327 328
329 331 335 334 335 337 337 338 338 337 337 337 336 334 333 333 335 336 333 329 327 328 326 326 325 324 323 324 323 322 322 323 325 326 326 325 324 324 323 323 323 323 324 325 325 325 325 325 326 328 328 328 329 330 332 333 332 331 332 332 331 330 330 331 331 330 329 330 330 330 332 331 329 328 326 326 327 327 329 328 327 327 327 327 328
330 332 334 334 335 337 337 337 337 336 336 335 334 333 332 333 334 334 330 328 327 327 325 324 324 324 323 322 322 322 324 325 325 325 325 324 323 323 323 324 324 324 324 324 323 324 325 324 324 326 327 328 328 328 330 332 332 331 331 331 330 329 329 330 331 331 330 330 330 330 332 332 331 330 329 328 327 327 329 329 328 328 327 326 327
331 332 333 334 335 337 336 336 337 336 335 334 333 332 332 332 333 332 329 327 326 325 325 324 325 325 324 323 323 323 324 324 324 324 323 322 322 323 323 324 324 323 323 323 322 323 323 322 322 323 325 325 326 326 328 329 330 331 330 329 329 330 330 331 331 331 330 330 331 332 332 331 332 332 331 331 329 328 329 329 328 328 328 327 326
330 331 334 335 335 336 335 335 336 335 335 334 332 332 332 331 332 331 328 327 326 325 326 325 323 324 324 323 323 323 322 322 322 322 321 321 322 322 322 323 324 323 323 323 322 321 321 321 320 321 322 322 322 323 323 325 326 328 328 328 330 331 331 330 330 330 329 330 330 331 331 331 333 333 332 333 329 324 325 327 327 328 330 329 329
327 327 331 335 335 336 335 334 335 335 334 334 333 333 331 331 332 331 328 328 326 326 326 323 321 323 322 320 320 320 320 322 322 321 321 321 321 321 322 323 323 323 323 323 322 321 321 320 320 320 320 320 321 321 321 322 323 324 325 326 328 329 329 329 330 329 328 329 329 329 330 331 333 333 332 333 331 326 326 328 329 329 330 330 330
325 327 329 333 335 335 335 334 333 333 334 334 333 333 331 331 332 330 328 328 327 326 325 322 321 322 320 318 318 319 320 321 322 322 321 320 320 322 322 322 322 323 322 322 322 322 322 321 320 319 318 318 318 318 318 319 319 319 320 322 324 325 326 327 328 328 327 328 328 327 327 327 329 331 330 332 333 331 329 330 329 329 329 330 329
325 327 328 330 333 334 335 334 333 332 333 334 334 333 330 331 332 329 328 327 328 326 323 321 322 321 320 319 318 319 321 322 321 322 320 319 320 321 321 321 321 321 321 320 320 320 320 319 318 317 315 314 314 315 315 315 317 317 317 319 320 321 323 324 325 326 326 327 327 327 327 327 327 327 327 328 330 331 331 330 329 328 328 329 329
323 326 329 329 331 333 333 334 333 332 333 334 335 333 330 331 332 329 327 327 328 327 322 321 322 322 321 320 319 320 321 321 320 320 319 320 321 321 320 320 320 320 319 318 317 317 316 316 315 315 314 314 313 313 315 316 317 318 318 318 318 318 319 321 322 322 322 323 323 323 325 326 327 326 325 325 327 328 330 330 329 328 327 326 327
322 323 325 327 329 330 332 333 333 333 332 333 335 333 330 331 331 329 327 327 329 327 322 321 322 322 321 319 319 320 319 318 319 319 319 320 321 321 320 320 320 319 318 316 316 316 316 316 315 315 315 314 315 315 316 317 317 318 318 318 318 318 317 318 318 318 319 319 318 319 320 322 324 326 325 325 325 326 327 328 328 328 329 327 326
320 320 322 324 324 326 329 332 333 333 333 333 334 333 331 332 331 329 327 326 329 327 322 322 322 322 321 320 320 320 318 319 320 319 319 320 320 320 320 319 319 319 318 317 316 317 317 317 316 315 315 316 316 317 317 317 318 319 318 318 319 319 318 318 317 318 318 317 316 318 318 319 320 321 322 322 322 323 323 323 324 325 325 326 324
320 321 323 324 325 323 325 329 332 333 333 334 334 332 331 332 331 329 327 327 329 327 323 322 322 322 322 320 320 321 319 320 320 320 319 320 319 319 319 319 319 319 318 318 318 318 318 317 316 316 316 316 316 316 316 317 318 318 318 319 319 319 319 319 318 319 319 318 317 316 316 317 318 318 319 319 319 320 320 320 319 319 319 320 321
320 322 324 326 326 326 324 326 331 333 333 334 334 332 332 332 331 329 327 327 328 327 324 323 322 323 323 322 320 320 320 319 320 320 320 320 319 319 319 319 319 319 319 318 318 319 318 317 316 316 315 315 315 315 315 315 316 316 316 317 318 318 318 318 318 318 318 318 318 317 316 316 317 316 316 317 317 317 318 318 319 318 318 318 318
321 322 325 327 327 328 328 327 330 331 331 332 333 332 332 332 331 329 328 327 328 327 325 323 323 323 323 323 321 321 320 319 319 320 319 319 319 319 318 318 319 319 319 319 319 319 319 318 317 316 315 315 315 315 315 315 315 315 315 316 316 316 316 316 316 316 316 316 317 316 316 316 316 316 316 316 317 317 317 318 319 318 317 318 318
323 324 326 327 328 329 329 329 330 330 329 330 330 331 331 331 330 329 328 327 328 328 326 325 324 323 323 323 322 321 321 319 318 319 319 318 319 319 318 317 318 318 318 319 319 319 319 319 318 317 316 315 316 315 315 315 314 314 314 316 316 315 315 315 315 315 315 314 314 315 316 316 315 315 315 315 316 316 316 316 317 317 317 318 318
325 325 326 327 329 329 328 328 328 327 328 329 329 329 330 330 330 328 328 327 328 328 326 325 324 324 323 323 323 322 321 320 318 318 319 318 318 319 319 318 317 318 318 319 319 319 320 320 319 317 316 316 316 315 316 315 314 314 315 315 315 315 316 316 315 315 315 314 313 314 315 314 313 313 314 314 314 315 315 315 315 315 316 316 317
324 325 326 327 328 328 327 326 326 326 327 328 328 329 329 329 329 328 328 328 328 328 327 326 325 324 323 323 324 323 322 321 319 318 320 320 318 319 319 318 318 318 318 320 319 319 320 320 319 318 317 316 316 315 315 315 314 314 314 314 315 315 315 315 315 315 314 314 313 312 313 313 311 312 313 312 313 314 314 314 314 314 314 314 315
324 325 325 326 327 327 326 326 325 326 326 327 327 328 328 327 328 328 328 328 328 328 327 326 325 325 325 325 325 324 323 322 321 320 320 321 320 319 318 318 318 318 319 320 320 319 320 320 319 319 318 316 316 315 315 315 314 315 314 314 315 314 314 314 314 314 313 313 313 311 312 312 310 310 311 311 311 311 312 312 313 314 314 314 314
322 323 324 325 326 326 325 325 326 326 326 326 326 327 327 327 328 328 328 328 328 328 327 326 325 325 325 326 326 326 324 323 322 321 322 322 321 319 319 318 319 318 318 321 321 319 320 319 319 319 318 317 316 315 315 315 315 315 314 314 314 313 314 315 314 313 313 313 313 311 311 311 309 308 310 309 309 309 310 310 310 311 312 313 314
320 321 322 323 325 325 325 324 324 325 325 325 325 326 326 327 327 327 327 326 326 326 327 326 326 325 325 326 326 325 324 324 323 322 323 323 322 321 319 319 320 319 319 321 321 319 320 320 319 319 319 317 316 316 315 315 315 315 314 314 314 313 314 315 314 313 312 312 313 311 310 310 309 308 309 308 307 308 308 308 308 309 310 312 313
318 318 318 320 323 323 323 323 323 324 324 324 324 325 325 325 326 326 326 325 325 325 325 325 325 325 325 326 325 324 324 324 323 323 323 323 323 322 321 320 320 320 319 320 320 319 320 320 319 319 319 318 317 316 316 315 315 315 314 314 314 313 313 314 314 313 312 312 311 310 310 310 309 308 308 308 308 308 308 307 307 308 309 310 312
317 317 316 317 319 319 320 321 322 322 323 324 325 324 324 324 324 325 325 325 325 324 323 324 324 324 324 325 324 323 323 323 323 323 323 323 323 323 321 321 320 320 320 320 319 319 320 320 320 319 319 318 318 317 316 316 315 315 315 314 314 312 312 314 314 313 312 312 310 309 309 310 309 309 309 309 308 308 307 307 307 306 307 308 309
316 315 315 316 316 316 317 317 318 319 320 321 322 323 323 324 324 324 324 324 324 324 324 325 324 323 323 323 322 322 322 322 323 323 323 323 323 322 321 321 320 320 320 320 319 319 319 320 319 319 319 318 318 317 317 316 315 315 315 315 313 313 312 312 313 312 312 311 311 311 310 310 310 309 309 309 308 308 308 307 306 306 306 306 307
315 315 315 315 315 314 315 315 315 316 316 317 318 319 320 321 322 323 323 324 325 325 325 324 323 324 324 323 323 323 324 324 324 324 323 323 322 322 322 322 321 321 320 320 320 319 319 319 320 319 319 319 318 318 318 317 316 315 315 315 314 313 312 313 312 312 311 310 310 311 310 310 310 309 309 309 308 307 307 306 305 305 306 306 306
315 315 314 314 314 313 313 313 313 313 313 314 315 315 315 316 316 317 318 321 322 323 324 324 324 324 324 324 324 324 324 324 324 324 323 322 323 323 323 323 323 322 322 321 321 320 320 320 320 320 319 319 319 318 318 317 316 316 315 315 314 313 312 312 312 312 310 310 310 310 310 309 309 308 309 308 307 306 305 305 305 305 305 305 306
315 315 315 314 314 314 313 313 312 312 312 312 312 313 313 313 313 314 314 315 316 317 319 322 323 324 324 324 324 324 323 324 324 325 324 324 324 323 323 324 324 323 323 322 322 321 320 320 320 320 320 319 319 319 318 317 316 316 315 315 314 313 312 312 312 311 310 309 309 310 309 309 308 308 308 307 306 305 305 305 305 305 305 306 306
315 316 315 314 314 314 314 313 312 311 311 311 311 311 312 312 312 312 312 313 313 314 314 316 317 319 320 322 322 323 324 325 325 325 325 326 325 324 324 324 325 324 324 323 323 322 322 321 321 321 321 320 320 319 318 317 317 316 316 315 314 313 312 312 311 310 310 309 309 309 308 308 307 307 307 306 305 304 304 304 304 305 305 306 306
314 315 315 315 314 314 314 313 311 311 310 310 310 310 310 311 310 311 311 311 312 312 312 313 314 314 316 317 317 319 322 323 324 325 325 325 324 324 324 325 325 325 325 324 323 323 322 322 322 321 321 321 320 320 318 318 317 317 316 315 314 313 312 311 310 310 309 309 308 308 307 307 306 306 305 304 301 300 300 301 301 302 302 303 304
313 314 314 314 314 314 313 312 311 310 310 310 310 309 310 310 309 310 310 310 310 311 310 311 312 313 314 314 314 315 316 318 320 322 322 323 323 324 324 324 324 324 324 324 323 323 322 321 320 321 320 320 320 320 319 318 317 316 316 315 314 313 312 311 310 309 308 308 307 307 307 306 305 304 303 300 297 296 296 297 298 300 301 302 302
313 313 313 313 312 313 313 312 311 310 310 310 310 309 309 309 309 309 309 309 309 310 310 310 310 310 312 312 312 313 314 314 315 317 319 321 322 322 323 324 324 324 324 324 323 323 321 320 319 320 320 320 320 319 318 318 317 316 315 314 313 312 311 310 310 308 307 307 306 306 306 305 303 302 300 299 299 298 297 297 297 298 299 300 301
312 312 312 312 312 312 313 312 311 310 310 309 309 308 308 308 308 308 308 308 309 309 310 310 310 310 310 310 311 312 313 313 314 314 315 317 318 320 321 323 324 324 324 324 323 322 321 319 318 319 320 320 319 318 318 317 316 315 314 313 312 311 309 308 307 307 307 306 305 305 304 304 302 302 302 301 301 300 299 298 298 297 297 298 298
312 311 311 311 311 311 312 312 310 310 309 308 308 308 308 308 308 308 308 308 309 310 310 310 310 309 309 310 310 311 311 312 313 313 314 314 315 317 319 320 321 323 323 323 323 322 321 319 319 320 320 319 317 316 316 315 314 313 312 311 309 308 307 307 306 306 305 305 304 304 303 303 302 302 301 301 301 300 300 299 299 299 299 299 298
310 310 310 310 310 311 311 311 310 310 309 308 307 308 308 308 308 308 308 308 308 308 309 309 310 310 309 309 310 310 310 310 311 312 313 313 314 315 316 317 319 320 320 321 321 321 320 320 320 320 318 316 315 313 312 313 312 311 309 308 307 306 305 305 305 304 304 303 303 302 302 301 301 301 301 301 302 302 302 302 302 301 300 300 299
310 309 310 310 310 311 311 310 310 309 308 308 308 308 308 308 307 307 307 307 307 307 308 308 309 309 310 310 310 310 310 310 310 311 311 313 313 314 315 316 317 318 319 319 319 320 320 319 319 318 315 312 312 311 310 310 310 309 307 305 304 304 303 303 303 302 302 302 301 301 301 301 301 301 301 302 302 303 303 302 302 301 301 301 301
309 309 309 310 310 310 309 310 309 308 308 308 308 308 308 308 307 307 307 307 307 307 308 308 308 308 309 310 310 310 310 311 311 311 312 312 313 314 315 316 316 317 317 317 318 319 319 319 319 316 310 308 308 307 307 308 307 306 304 303 303 302 301 301 301 301 301 301 301 301 301 301 301 302 302 301 301 301 301 300 300 300 300 300 300
309 309 309 309 309 308 309 309 308 308 307 307 307 307 308 308 307 308 307 307 307 307 308 308 308 308 309 309 310 310 310 311 311 311 311 312 312 314 315 316 316 316 316 316 317 318 319 319 316 311 306 305 304 303 304 304 303 301 300 300 301 300 299 300 301 301 301 301 301 301 301 301 301 301 301 300 300 299 298 298 298 298 298 299 299
308 308 308 308 308 308 308 308 308 308 308 307 307 308 308 308 307 307 307 307 307 307 308 308 308 308 309 309 310 310 310 311 311 311 312 312 312 313 314 315 316 316 315 315 316 317 318 315 309 305 304 303 300 299 299 299 298 298 298 299 300 299 299 299 300 300 301 301 301 301 301 301 300 300 299 299 298 297 296 297 297 297 297 297 297
307 307 307 307 307 307 307 307 307 307 307 308 308 307 307 307 307 307 307 307 307 307 308 307 308 308 308 309 309 310 310 311 311 311 311 312 312 313 314 314 315 314 314 314 315 315 313 308 304 303 303 301 296 295 296 296 296 296 296 298 299 298 298 299 299 300 300 300 300 300 299 299 299 299 298 298 297 296 295 296 296 296 296 296 296
306 306 305 305 305 305 305 305 307 307 307 307 307 306 307 307 307 307 307 307 307 308 308 308 308 309 309 309 309 310 311 311 311 311 311 311 312 313 313 314 314 314 314 313 311 308 306 303 302 302 300 297 294 293 294 294 294 293 293 296 298 297 297 298 299 299 300 300 300 299 299 298 298 298 297 296 295 294 294 295 295 295 295 295 295
305 305 305 304 304 304 304 305 306 306 306 306 306 306 307 307 307 307 307 308 308 308 308 308 308 309 309 310 310 310 311 311 312 312 312 312 312 312 312 314 313 312 310 308 306 305 303 300 299 298 296 294 294 293 293 293 292 291 292 293 295 296 297 298 299 299 298 298 298 299 299 298 297 296 295 294 294 293 293 293 294 294 294 294 294
304 304 303 303 303 304 304 304 305 305 306 306 306 306 306 307 307 307 307 307 307 307 308 308 308 309 309 309 310 310 310 311 312 312 312 312 312 312 312 313 312 309 307 305 303 302 301 298 297 296 294 294 293 292 292 292 291 291 291 291 293 296 297 297 297 297 297 298 298 299 299 297 295 294 293 293 293 292 292 291 292 292 292 292 292
303 303 303 302 303 304 304 304 304 304 305 305 305 306 306 306 306 306 306 307 307 307 308 308 308 309 308 309 309 309 310 310 311 311 310 310 311 312 312 311 309 307 305 303 301 300 299 298 298 297 296 295 293 292 292 292 291 291 291 290 292 294 294 293 295 296 297 298 298 298 298 297 295 294 294 293 292 291 291 290 290 290 290 290 290
303 303 302 302 302 302 303 303 303 304 304 304 305 305 305 306 307 307 306 307 307 308 308 308 308 308 308 308 308 308 308 309 309 309 309 310 311 311 310 308 306 304 302 300 299 298 298 297 297 297 296 295 294 292 292 291 291 291 291 291 291 292 292 293 295 296 297 297 297 298 297 296 295 294 293 292 291 290 290 290 290 290 290 290 289
302 302 302 302 302 302 302 302 303 304 304 304 305 305 305 306 306 307 307 307 307 307 307 307 307 307 307 307 307 308 308 308 308 308 309 310 310 308 306 305 304 302 300 299 298 297 296 296 295 295 296 295 294 292 292 292 292 293 293 293 293 293 293 293 294 295 296 296 296 296 295 294 293 292 291 291 290 290 290 291 291 290 290 290 290
302 302 302 302 302 302 303 303 303 304 304 304 304 304 305 305 306 306 306 307 307 307 307 307 307 306 306 307 307 307 307 308 308 309 310 310 308 305 303 302 300 299 298 297 296 295 295 296 296 297 297 297 296 295 294 294 295 295 295 295 295 294 294 294 294 294 295 295 295 294 293 292 291 291 291 291 291 291 291 291 291 291 291 291 291
302 302 302 302 302 302 303 303 303 303 303 304 304 304 305 305 305 306 306 306 306 307 307 306 306 306 306 306 306 306 307 307 308 308 309 308 305 302 301 299 298 297 297 297 297 297 297 298 298 298 298 297 297 297 297 297 297 297 297 296 296 295 295 295 295 295 295 295 294 293 292 291 291 291 292 292 292 292 292 292 292 292 291 291 292
302 302 302 302 302 303 302 303 303 303 303 303 304 304 304 305 305 306 306 306 306 306 306 306 305 305 305 305 305 306 306 306 306 306 306 304 302 301 300 299 299 298 298 298 298 298 298 298 298 297 297 297 297 298 298 298 297 297 297 296 296 296 296 295 295 295 294 293 292 292 291 292 292 292 292 292 292 292 292 292 292 292 292 292 292
301 301 301 302 302 302 302 302 303 303 303 303 304 304 305 305 306 306 307 307 306 305 305 305 305 305 305 305 305 304 304 304 304 304 303 302 301 300 299 299 298 298 298 298 297 298 298 298 297 297 298 298 298 296 295 295 294 294 294 295 295 295 295 294 294 292 291 291 291 291 292 293 293 293 292 292 292 292 292 292 292 292 292 292 292
300 300 301 301 302 302 302 302 303 303 303 303 304 304 304 305 306 306 306 306 305 304 304 304 304 304 303 303 302 302 303 302 301 300 299 299 299 298 298 297 297 297 297 297 297 297 297 297 297 297 297 297 296 294 292 291 291 291 291 292 292 292 292 291 291 290 289 290 291 292 293 293 293 293 292 292 292 292 291 291 291 291 291 291 291
300 300 301 301 302 302 302 303 303 303 304 304 304 304 305 305 306 306 305 304 304 303 303 303 302 302 301 301 301 301 300 300 298 297 296 297 297 297 297 296 296 296 296 296 296 296 297 297 297 296 296 295 294 292 290 290 290 290 290 290 291 291 290 290 290 290 290 291 292 292 293 293 293 293 292 292 292 291 291 291 291 291 291 291 291
301 301 302 302 302 303 303 303 303 303 304 304 304 304 305 305 305 304 303 303 302 302 301 301 300 300 300 300 299 299 299 298 297 296 295 295 295 295 295 295 295 295 295 295 295 295 295 295 294 293 293 292 291 291 290 291 291 291 290 290 291 291 291 291 290 290 290 291 293 293 293 293 292 292 292 291 291 291 291 291 291 291 291 290 290
Wind_Speed
10 14 18 17 17 17 15 15 15 14 13 14 14 13 12 12 11 11 10 9 9 8 7 6 5 5 4 4 4 3 4 4 4 4 4 4 4 4 4 4 3 2 2 2 2 2 3 4 4 5 5 4 3 5 6 7 9 9 10 11 11 10 11 12 11 9 8 8 8 7 8 9 9 10 14 15 13 11 11 13 14 14 14 14 13
11 14 17 18 18 17 16 15 16 15 15 15 15 14 13 12 12 12 11 10 9 7 6 5 4 4 4 5 5 4 4 4 5 4 4 4 4 4 4 4 3 2 2 1 1 1 2 3 3 4 4 4 3 1 2 3 6 7 7 8 7 7 9 10 11 10 8 7 5 5 7 8 9 12 17 18 17 16 13 12 13 14 14 12 12
12 13 16 18 18 18 16 15 16 16 15 15 15 15 14 13 13 12 11 11 10 8 7 6 5 4 4 5 4 4 5 5 6 5 4 5 4 4 4 4 3 3 3 2 1 2 2 2 2 2 4 4 3 3 3 1 2 3 4 4 3 5 6 6 9 10 8 4 2 2 2 3 5 7 12 16 18 17 16 14 13 13 14 14 12
12 13 15 17 18 18 17 15 16 16 15 16 16 16 15 14 14 13 13 12 11 10 8 7 7 6 6 6 5 6 7 6 6 6 5 5 5 4 4 4 3 4 4 3 3 3 2 2 2 3 4 5 4 4 5 5 4 3 2 1 1 3 3 2 3 6 6 4 1 1 1 1 2 2 5 9 11 12 14 15 14 17 13 11 11
11 12 13 14 15 17 18 17 17 16 16 16 17 17 15 15 15 14 14 13 12 12 10 9 9 8 8 8 7 7 7 6 6 6 5 5 5 5 4 4 4 4 4 4 5 4 3 3 2 3 3 4 5 4 5 6 6 6 6 5 4 3 2 3 1 2 3 5 4 1 1 2 2 0 1 3 5 6 8 11 10 12 12 10 9
10 12 12 12 14 16 18 18 18 18 17 17 18 17 16 16 16 15 14 14 14 14 12 11 10 9 9 9 8 7 7 7 6 6 6 5 5 5 4 4 4 4 4 5 5 5 4 3 3 3 3 4 5 5 4 5 7 7 8 6 5 5 2 2 1 2 2 2 4 3 1 1 0 0 1 1 3 5 5 7 8 5 6 10 9
10 12 12 11 13 15 16 19 19 19 18 17 18 18 17 17 17 16 15 14 15 16 14 12 11 11 10 9 8 8 7 7 7 7 6 6 6 5 5 4 4 4 4 5 5 4 4 4 4 4 4 4 4 5 5 5 6 7 8 8 7 6 4 1 3 3 3 3 3 3 1 1 2 1 1 1 1 2 3 5 5 4 5 7 7
8 9 9 10 11 14 15 17 18 18 18 18 18 19 19 18 18 17 15 15 16 17 16 14 12 12 11 10 9 8 8 8 8 7 6 7 6 6 5 5 4 4 4 5 5 5 5 4 4 4 4 4 4 6 6 6 7 6 7 7 7 7 7 6 4 3 2 2 3 3 2 1 2 2 3 3 2 2 1 1 2 3 4 7 8
6 6 6 7 9 12 15 16 17 18 19 19 19 20 20 19 18 18 16 16 17 18 18 15 13 12 11 11 10 9 9 9 9 8 7 7 6 5 5 5 5 5 5 5 6 6 6 5 5 5 5 6 6 7 7 7 7 7 7 8 7 7 7 7 6 6 6 5 4 2 0 1 2 4 3 1 1 0 2 2 1 3 5 6 8
5 4 3 4 6 9 11 14 16 18 19 19 19 20 21 20 19 19 17 16 18 19 18 16 14 13 12 12 12 11 11 10 9 9 8 7 7 6 5 5 5 5 5 5 5 6 6 5 5 5 5 6 6 7 7 7 8 8 8 8 8 8 7 7 6 6 6 6 6 5 4 3 1 3 4 2 2 3 3 2 1 2 3 5 9
2 2 2 2 4 6 9 13 16 18 19 19 20 21 22 21 21 21 18 17 18 19 19 18 15 14 13 13 13 12 12 11 10 10 9 8 8 7 6 5 5 5 5 5 5 5 5 5 4 4 5 5 5 5 6 6 6 7 7 8 8 8 8 7 7 6 5 5 6 6 6 6 4 3 3 3 3 2 3 3 3 3 4 5 8
1 1 2 2 1 5 9 13 15 17 19 19 20 21 22 22 22 22 20 18 18 19 19 18 17 14 13 13 14 13 13 12 12 11 10 9 8 8 7 6 6 6 6 5 5 4 4 4 4 4 4 4 4 5 5 5 6 6 7 7 8 8 8 8 7 7 7 6 6 6 6 5 5 5 5 4 4 4 4 4 5 5 5 5 6
3 4 4 3 1 2 6 11 14 16 18 18 18 20 21 21 22 23 21 19 18 19 20 19 18 16 14 14 14 14 14 13 12 12 11 10 9 8 8 7 7 7 6 6 6 5 4 4 3 3 3 3 4 4 4 5 5 5 6 6 7 7 7 7 7 7 7 6 6 6 6 6 6 6 5 4 3 4 5 4 5 6 6 6 7
5 6 6 5 4 2 2 7 10 13 16 16 16 18 19 20 22 22 22 20 18 18 19 19 18 17 15 14 14 14 14 13 12 12 12 10 9 9 8 7 7 7 7 7 7 6 5 4 3 3 3 3 3 3 3 4 3 4 5 5 6 6 6 7 7 6 6 6 6 5 5 6 6 6 5 5 5 5 5 6 6 6 6 8 8
7 7 7 6 6 5 2 2 6 11 13 14 15 16 16 18 20 21 21 20 18 18 18 19 18 17 16 15 14 14 13 13 12 12 12 11 10 10 9 7 7 7 7 7 8 7 6 5 4 4 3 3 3 2 2 2 2 3 4 4 4 5 5 5 6 6 6 6 6 5 4 5 6 6 6 6 6 6 5 6 6 6 6 6 6
7 7 7 7 7 6 4 1 4 7 9 10 13 14 14 15 17 19 19 19 18 17 17 18 17 17 17 16 15 14 14 14 13 12 13 12 11 10 10 9 8 8 8 9 9 8 7 7 6 5 5 4 3 3 2 2 1 1 3 3 3 3 4 4 4 5 5 6 6 5 4 5 6 5 5 6 6 6 5 5 5 5 6 5 5
8 8 8 7 7 6 5 4 3 5 6 7 9 11 13 13 15 17 17 17 17 16 16 16 16 16 17 17 16 15 15 14 13 13 13 13 12 11 11 11 10 9 9 10 10 10 9 8 7 7 6 5 5 4 3 3 2 2 2 2 3 3 3 3 3 3 4 4 5 5 4 5 5 5 5 5 5 5 5 5 5 5 5 5 5
9 9 9 8 8 8 7 5 4 5 6 7 8 8 10 11 12 14 15 15 14 14 14 14 15 15 15 16 16 16 15 14 13 13 13 13 13 12 12 12 12 11 11 12 12 11 11 10 9 9 8 8 7 6 5 5 4 4 4 3 4 4 3 3 3 3 2 2 3 3 3 3 4 4 4 4 4 4 5 5 5 5 5 5 5
9 9 9 8 9 9 8 7 6 6 6 7 8 7 8 8 9 11 13 13 12 12 12 12 13 13 13 14 15 15 15 14 13 13 13 13 14 13 13 13 14 13 13 14 14 13 13 13 12 11 11 10 9 8 8 7 6 6 5 5 5 5 5 5 4 3 3 2 2 1 1 2 3 3 2 3 4 4 5 5 6 6 6 6 7
9 9 9 9 9 10 9 8 7 7 7 8 8 8 7 7 7 8 10 10 10 10 10 10 11 11 11 12 13 14 14 14 14 14 14 14 15 15 14 14 15 15 15 15 16 15 15 15 14 14 13 13 12 12 11 10 9 8 7 7 7 6 6 6 5 5 4 4 4 3 2 1 1 2 2 3 4 4 4 6 7 7 7 7 8
8 9 9 9 11 11 10 9 8 8 9 9 9 10 9 7 6 7 8 9 7 7 7 7 7 8 10 11 11 13 13 14 14 15 15 15 15 15 16 15 15 15 15 16 17 17 17 16 16 15 15 15 14 14 13 12 11 10 9 8 8 8 7 7 7 6 5 5 4 3 3 3 2 1 2 4 4 4 6 7 7 7 8 8 8
8 9 9 9 10 12 12 12 10 10 9 9 9 10 10 9 7 5 6 8 7 8 7 5 6 6 7 8 9 10 12 13 14 14 15 15 15 15 15 15 16 16 16 17 17 18 17 17 17 17 17 16 16 16 15 14 13 12 11 10 10 9 9 9 8 7 7 7 5 4 4 4 3 3 3 4 4 5 7 7 7 8 9 9 9
8 8 8 8 9 11 13 13 13 12 11 10 10 11 11 11 9 7 5 5 5 7 6 4 4 5 6 9 9 8 12 15 15 14 14 14 15 16 16 16 16 16 16 17 18 18 18 18 19 19 18 18 17 17 16 16 14 14 14 13 12 11 11 10 9 8 8 7 6 5 4 4 4 3 4 4 5 5 6 7 8 9 10 11 11
8 7 7 7 8 9 10 12 12 12 12 12 12 12 13 11 10 9 6 5 4 4 5 5 6 7 8 11 10 7 10 14 13 13 13 14 17 18 18 18 18 17 17 18 18 18 19 20 20 20 19 19 19 18 17 17 16 15 15 14 13 13 12 11 11 10 8 7 6 5 5 4 4 4 5 5 6 6 6 8 9 9 10 11 11
7 7 7 7 7 7 8 9 10 11 11 12 12 12 13 12 11 10 9 7 6 4 3 4 6 8 9 10 9 9 12 14 13 13 15 15 17 19 18 17 17 18 18 18 19 20 21 21 21 20 20 19 19 18 17 17 16 15 15 15 13 13 13 12 11 10 9 7 6 6 5 4 4 5 6 6 7 7 8 9 9 9 10 11 11
7 7 7 6 6 6 8 8 8 9 10 10 11 11 11 11 10 10 9 8 7 6 4 2 3 6 8 9 9 11 15 16 14 13 13 14 16 17 18 18 17 17 18 19 19 20 22 23 22 21 20 20 18 18 17 17 16 15 15 15 14 13 12 12 11 10 9 8 7 7 6 5 5 6 6 7 7 8 9 9 10 10 11 12 12
6 6 6 7 7 7 8 8 7 8 8 8 9 9 9 9 9 9 9 8 7 6 5 3 1 1 3 4 7 10 12 13 13 13 12 12 14 16 17 18 18 18 19 19 20 21 22 22 21 21 20 20 19 19 19 18 17 16 16 15 14 14 12 11 10 9 8 8 7 7 6 6 6 7 6 6 6 8 9 9 10 11 11 12 13
4 5 6 7 7 7 7 7 7 7 7 7 7 8 8 7 7 7 7 7 6 4 3 2 1 1 1 2 3 5 5 7 10 11 11 11 13 17 19 19 19 19 20 19 20 21 20 17 17 19 19 20 20 20 20 20 19 17 16 16 14 13 12 11 10 9 8 7 7 7 7 7 7 7 8 7 8 10 10 11 11 11 12 13 14
5 5 6 6 7 6 6 6 6 6 6 6 6 7 7 6 6 6 6 5 4 3 3 2 2 2 2 3 3 4 4 6 8 9 10 12 13 16 19 20 19 19 20 20 18 18 17 15 15 18 21 22 21 20 20 20 19 17 16 17 16 13 12 10 9 8 8 7 7 7 8 8 9 11 13 14 15 13 12 13 12 12 12 13 14
6 6 6 6 6 6 6 6 5 5 5 5 5 5 5 5 5 5 4 4 3 3 3 3 4 4 4 5 5 5 6 7 8 9 10 11 12 14 15 17 18 18 17 17 15 15 17 18 17 20 22 22 19 18 18 19 19 19 18 17 17 13 11 9 8 8 7 7 7 8 8 10 12 15 16 16 15 13 13 14 14 14 13 14 14
6 5 5 6 6 6 6 6 5 4 4 4 4 4 4 4 4 4 4 4 3 3 3 3 4 4 5 6 6 6 7 7 8 9 10 11 11 12 12 13 14 14 15 15 15 16 18 20 22 23 21 19 19 19 20 21 22 21 19 16 15 11 9 9 8 7 7 7 7 8 8 10 12 13 14 14 14 15 16 16 16 16 16 16 16
6 5 5 5 6 5 5 4 4 3 3 4 3 3 3 4 4 4 4 4 4 4 4 4 5 6 6 7 7 7 8 8 8 9 10 10 11 11 12 12 13 13 14 14 15 17 19 20 22 22 20 20 22 21 21 23 24 23 20 14 11 10 8 8 7 7 7 7 7 8 9 10 11 12 13 14 15 17 17 17 17 17 16 17 18
6 6 5 3 3 5 5 3 2 2 3 4 3 3 3 3 3 4 4 4 5 5 5 6 6 7 7 7 7 8 9 9 9 9 10 10 11 12 12 13 13 13 13 14 15 17 18 17 20 20 16 19 22 20 20 23 24 24 22 14 9 8 7 6 6 6 6 7 8 9 10 10 11 12 13 13 13 14 15 15 15 15 16 18 19
6 5 4 2 1 3 3 2 1 2 3 4 3 2 3 3 4 5 5 6 7 7 7 7 7 8 8 8 8 9 9 9 9 10 10 11 11 12 12 12 13 13 14 14 15 16 17 16 18 18 15 17 22 21 21 23 24 23 21 15 8 7 6 4 5 6 7 8 9 10 10 11 11 11 12 12 11 11 12 12 13 13 15 18 19
5 4 3 2 1 1 1 1 2 3 3 3 3 3 4 5 5 6 7 8 8 8 8 8 9 9 9 9 9 10 10 10 10 10 11 11 11 12 13 12 12 12 13 14 14 14 16 17 16 16 16 18 21 21 21 22 21 20 19 14 7 5 4 5 6 7 8 9 10 10 11 11 11 11 12 13 12 11 12 13 14 15 16 17 17
4 4 4 4 3 2 1 2 3 4 4 5 5 5 6 6 7 7 8 8 9 9 9 9 9 10 10 10 10 11 10 11 11 11 11 12 12 12 12 12 13 12 13 13 13 13 15 14 14 16 18 19 19 19 18 18 17 16 14 10 6 3 4 6 7 8 9 10 10 10 10 10 10 11 13 15 14 13 13 14 15 16 16 17 17
4 4 5 5 4 2 2 2 3 5 5 6 6 5 6 7 8 9 9 9 9 10 10 10 10 10 10 10 11 11 11 11 11 12 12 12 12 12 12 12 12 12 12 12 12 13 12 11 15 17 19 21 20 18 16 16 14 12 9 7 4 4 5 7 8 8 10 10 11 11 11 11 12 13 15 16 16 15 14 14 17 17 18 18 18
5 5 7 6 4 3 4 4 5 6 6 6 6 7 7 8 9 9 10 10 11 11 11 12 12 11 11 11 11 12 12 12 12 12 12 12 12 12 11 11 12 13 12 8 6 7 7 11 15 16 19 23 23 18 16 14 12 9 8 6 4 5 6 7 8 9 10 10 11 12 13 14 14 14 15 16 16 15 14 15 17 18 20 20 19
7 8 7 6 5 6 7 7 7 7 7 7 8 8 9 9 9 10 11 11 11 12 12 12 13 12 12 12 12 12 12 13 13 13 13 13 12 12 12 12 11 9 6 5 9 11 11 11 13 17 21 24 23 18 14 12 10 9 8 6 2 5 7 7 8 9 9 10 11 13 15 16 15 15 15 16 17 17 15 15 17 20 22 22 21
10 8 6 7 8 9 8 8 8 9 9 9 9 10 9 10 10 10 11 12 12 13 13 14 14 13 13 13 13 13 13 13 13 13 13 13 13 12 12 10 6 4 6 10 11 12 13 14 16 20 22 21 20 16 13 10 8 7 7 5 2 4 6 6 8 9 10 11 12 12 13 11 9 10 12 14 15 16 16 16 17 20 23 23 22
10 9 8 10 11 10 9 10 10 10 10 10 10 11 10 11 11 11 12 13 14 14 14 14 14 14 14 14 13 13 14 14 14 14 14 14 14 13 11 10 9 9 10 12 14 15 17 17 17 19 19 17 16 14 12 9 7 5 4 2 0 2 5 6 8 10 11 11 11 10 8 6 4 6 9 12 15 18 20 20 19 21 24 26 26
10 9 9 10 11 10 10 11 11 11 11 11 11 12 12 12 12 13 13 14 14 15 15 15 15 15 15 15 14 15 14 14 15 15 15 16 15 10 9 11 11 11 13 16 17 18 19 17 15 15 15 15 14 12 10 8 6 4 1 1 2 4 7 8 9 10 11 11 11 10 8 9 10 12 15 19 21 22 23 23 23 24 26 27 28
13 12 12 12 12 12 12 12 12 12 12 12 12 13 13 13 14 14 14 14 15 15 15 16 16 16 15 15 16 16 16 16 16 16 16 16 12 8 11 12 12 14 16 18 18 18 18 17 15 14 13 13 12 10 8 6 4 1 2 4 4 6 8 7 8 10 11 11 11 10 10 14 17 19 22 24 25 24 23 22 22 22 23 23 25
15 15 14 14 14 14 15 14 14 13 13 13 13 14 14 14 15 15 15 15 16 16 16 16 16 15 16 16 17 17 17 17 17 16 14 11 9 10 11 12 15 17 18 17 17 17 17 16 15 13 12 12 12 10 7 3 1 2 3 4 5 7 8 8 8 10 10 10 10 12 14 18 20 21 22 23 22 21 20 20 20 21 21 22 22
17 17 16 16 16 16 15 15 14 14 14 14 15 15 16 16 16 16 16 17 17 17 16 16 16 16 17 17 17 17 18 16 15 14 11 10 13 12 12 14 16 18 18 18 17 17 17 16 15 13 13 12 12 11 7 2 3 4 4 5 8 9 9 10 10 10 10 11 13 14 17 19 19 19 20 20 20 19 19 20 21 22 23 22 20
20 19 17 17 17 17 16 16 16 15 15 16 16 16 17 17 16 16 17 18 18 17 17 16 17 17 17 18 19 19 17 15 12 10 8 11 14 14 15 17 18 18 18 17 17 17 17 16 15 14 13 12 11 10 7 3 1 3 4 6 9 9 9 11 13 12 11 12 13 14 16 17 17 17 17 18 19 19 19 20 20 21 21 20 19
20 19 18 18 17 17 18 18 18 17 17 17 17 17 17 17 16 16 17 17 17 17 18 18 18 18 19 20 18 15 12 10 8 7 10 12 14 17 19 19 19 19 19 17 16 16 15 15 15 14 13 12 10 7 5 2 2 3 3 5 7 8 9 11 11 11 13 14 15 16 16 15 16 16 16 17 18 18 18 18 18 18 18 18 18
21 20 19 18 18 18 18 18 18 18 17 17 17 17 17 17 16 16 16 16 16 17 19 20 20 19 18 17 12 8 8 9 8 11 14 15 16 18 18 17 17 18 18 17 17 16 15 14 14 14 13 11 9 7 5 4 3 3 3 4 6 7 8 9 10 12 16 16 15 14 14 14 15 16 16 16 16 16 16 16 17 18 18 18 19
21 20 19 19 20 20 19 19 19 18 17 17 17 17 17 16 15 14 13 14 16 17 19 19 17 15 13 10 6 6 10 12 14 16 16 16 17 17 16 16 16 17 17 17 16 15 14 14 13 12 11 10 9 7 5 4 4 4 5 6 6 6 8 9 11 13 14 13 12 12 13 14 15 15 16 16 16 16 17 17 17 18 18 19 19
20 20 20 20 20 20 19 19 18 17 17 16 16 16 15 14 12 11 12 14 15 16 15 14 12 10 9 8 8 10 14 17 19 21 21 21 20 19 19 20 19 18 18 18 17 16 15 15 15 14 11 10 9 8 6 6 5 6 7 7 6 7 8 10 12 13 12 11 11 13 15 15 16 16 16 16 16 17 18 18 18 19 18 19 20
20 20 20 20 19 19 18 18 18 17 17 16 16 15 11 8 8 9 11 12 11 10 10 8 7 8 9 11 14 16 19 20 20 20 22 25 26 25 24 23 21 20 20 19 18 17 17 16 17 15 13 11 10 8 6 6 6 7 7 8 8 7 8 9 11 12 11 10 11 15 16 16 16 16 16 16 17 17 18 18 19 19 19 19 20
Wind_Direction
180 192 176 167 164 160 160 160 160 161 162 164 163 163 159 155 152 147 147 147 148 155 157 159 155 145 145 136 129 126 117 115 102 86 83 77 60 48 43 36 29 17 342 327 334 320 298 288 293 289 279 271 252 241 249 256 249 233 221 232 241 242 243 247 260 269 264 263 270 286 285 274 274 280 283 287 292 290 275 256 248 246 241 229 223
178 194 184 172 167 165 165 163 165 167 169 172 169 167 163 158 156 151 151 153 155 157 153 154 147 140 144 140 138 131 118 120 118 100 87 80 61 48 46 40 43 38 27 31 13 345 315 300 302 309 311 316 318 292 257 244 239 230 214 225 246 253 255 251 247 250 253 259 280 290 286 286 283 279 278 280 282 286 286 269 256 246 241 235 226
181 193 191 177 168 169 169 167 172 172 171 175 174 170 166 163 159 155 155 156 157 155 151 149 139 127 129 130 128 117 103 94 102 106 98 93 81 70 66 60 62 68 69 73 61 38 4 326 318 337 350 351 355 11 24 45 242 241 215 222 228 226 245 249 237 239 243 256 308 287 283 307 284 264 266 268 267 273 281 279 283 277 249 234 232
184 194 194 180 170 171 173 173 174 175 174 176 176 173 170 169 163 159 159 157 157 156 151 144 138 127 122 121 110 107 112 109 109 111 103 99 92 80 79 75 67 70 72 70 71 66 45 26 13 1 1 357 4 18 23 29 18 14 25 3 119 175 192 176 209 231 234 231 244 250 227 251 251 220 235 250 254 265 274 267 286 310 292 253 246
184 204 199 181 176 176 176 177 177 178 179 178 178 176 173 171 165 161 160 158 157 156 152 146 145 141 135 132 123 117 126 136 134 124 116 111 101 91 90 85 73 73 71 65 73 74 61 53 34 20 11 357 0 9 14 17 14 22 33 38 62 91 129 132 144 193 206 218 215 193 234 236 230 70 221 244 259 270 278 262 273 319 331 323 308
188 214 208 188 185 182 179 180 181 182 181 180 179 177 175 171 167 163 162 160 158 157 155 152 156 158 153 151 148 146 148 149 143 135 131 120 110 108 100 92 83 79 73 68 75 75 65 59 38 32 33 15 9 13 18 17 12 15 21 25 43 54 89 146 115 75 98 200 219 216 260 280 52 38 243 243 276 268 265 267 273 297 329 334 333
202 215 211 201 194 190 186 184 186 186 182 180 179 178 176 172 169 166 163 162 160 159 159 160 164 167 166 161 158 160 153 143 136 133 129 119 118 118 108 103 97 85 78 76 80 77 71 66 47 39 46 44 34 32 31 25 22 22 18 15 23 30 22 47 98 98 104 138 180 212 260 355 48 72 5 354 292 270 246 265 289 285 289 305 303
214 220 210 208 203 199 196 192 190 187 183 181 178 178 178 174 171 169 165 163 163 162 162 166 168 171 172 164 161 162 148 138 137 133 127 123 124 124 117 113 104 93 88 87 89 84 80 78 67 58 57 58 61 57 48 39 37 35 31 27 28 30 18 15 46 54 41 122 144 167 169 111 83 73 20 358 0 353 323 304 333 315 294 290 284
213 224 212 215 213 208 203 199 196 190 186 183 179 178 178 175 172 170 169 165 165 165 165 170 172 172 175 167 163 159 146 145 145 138 133 131 130 129 123 117 108 99 94 93 93 93 89 84 74 63 53 51 58 63 56 52 51 45 44 42 38 40 36 29 29 23 15 17 17 4 28 133 158 156 157 166 113 336 322 4 7 332 329 305 286
198 205 199 217 227 222 212 204 200 194 190 184 179 178 177 175 173 173 172 167 167 167 166 171 174 173 177 172 166 157 151 156 152 144 145 143 141 138 133 128 120 111 107 105 100 98 94 86 78 66 54 51 58 65 63 60 59 56 54 52 49 50 49 47 41 33 27 21 6 351 350 352 318 164 164 165 154 199 260 307 305 292 319 300 281
199 182 154 177 217 229 223 212 203 197 193 186 180 179 178 176 174 173 174 171 169 169 168 172 174 177 179 175 169 161 158 160 155 153 158 157 155 155 152 145 136 130 127 124 114 108 101 90 84 74 63 57 59 63 64 64 62 60 59 57 55 55 54 54 52 42 40 40 25 7 9 13 5 10 27 10 349 277 286 310 308 274 260 271 274
333 41 77 90 196 226 225 217 207 198 194 189 183 179 179 178 175 173 175 175 172 170 170 172 175 179 179 176 173 166 163 163 162 164 167 166 167 167 164 158 152 150 149 148 141 131 120 107 99 87 75 66 62 61 61 63 64 61 59 57 56 55 53 53 54 44 38 44 41 26 20 27 26 20 19 9 346 333 324 305 302 303 285 283 282
37 44 55 57 40 243 226 217 208 199 196 196 189 181 180 179 176 174 176 176 174 172 172 173 177 180 179 179 177 173 171 170 168 169 172 175 176 176 175 171 166 165 165 166 162 156 147 136 125 108 94 82 77 74 69 68 69 68 65 62 60 58 58 58 58 51 40 36 37 34 27 27 32 28 17 8 359 339 319 307 310 315 312 303 291
43 45 45 44 41 24 237 212 205 201 202 206 200 188 182 181 179 177 176 176 175 175 174 176 178 180 181 181 180 179 178 178 176 176 178 183 182 180 185 182 176 175 176 174 172 172 169 158 150 133 120 114 102 91 85 76 72 77 75 71 68 64 63 63 61 58 52 41 32 32 36 32 26 22 14 3 5 356 337 337 332 320 311 297 285
46 50 49 48 49 45 47 198 204 205 207 210 208 198 187 182 182 179 177 176 176 176 177 179 180 181 184 184 185 185 183 184 186 184 184 188 187 183 188 191 186 183 183 179 175 179 180 172 169 160 149 146 131 120 113 95 77 79 82 80 77 71 68 67 63 60 54 49 42 32 37 42 27 15 13 6 5 4 351 344 337 325 317 302 295
52 55 54 56 58 60 71 128 202 207 206 207 209 206 196 186 182 181 179 177 177 177 179 182 182 183 186 187 189 190 189 190 192 191 189 191 190 186 189 193 191 188 186 182 181 184 186 183 183 180 172 172 165 162 163 140 120 110 102 96 94 87 82 76 69 63 53 48 44 32 34 48 32 14 13 11 4 356 343 337 331 325 322 318 318
58 62 61 61 64 68 82 102 155 182 191 201 207 205 199 190 180 179 180 178 180 180 180 184 184 185 189 191 193 194 195 196 196 195 192 191 193 192 191 194 193 192 188 186 187 190 191 190 192 192 188 189 187 186 190 177 175 172 147 139 137 129 117 99 82 71 62 53 43 33 38 46 29 16 14 9 0 348 336 328 321 318 317 318 316
64 66 66 67 67 69 77 89 113 139 158 175 189 196 198 193 181 178 180 179 181 182 182 185 186 188 191 194 197 198 199 201 201 200 195 194 197 196 197 197 195 195 192 188 191 194 194 195 197 197 195 196 195 197 198 194 198 192 177 178 169 162 164 150 133 117 99 80 62 41 36 47 27 11 8 2 352 338 327 320 313 307 299 296 301
66 66 66 68 70 71 75 80 95 110 123 138 153 165 174 179 176 176 180 179 180 184 186 187 188 192 195 198 202 202 203 205 206 205 202 202 204 203 203 202 198 198 196 192 193 196 197 198 200 201 200 201 200 201 201 200 203 200 193 196 188 186 187 173 163 157 150 146 133 100 58 59 23 352 348 349 337 324 320 318 312 306 295 285 284
67 69 69 69 71 73 77 81 90 99 105 113 121 127 133 146 155 161 169 175 181 188 189 188 190 195 199 201 205 207 208 209 210 211 211 211 212 210 208 206 203 201 200 197 197 199 201 201 202 203 202 203 204 203 203 203 205 203 203 203 194 195 201 189 182 179 176 181 175 170 178 157 4 335 329 326 318 309 309 308 302 297 290 282 275
75 75 75 76 78 78 82 87 91 99 102 105 110 109 105 113 128 135 143 152 167 179 181 188 196 205 212 211 214 217 215 215 216 216 219 220 220 218 215 212 209 207 205 204 203 204 205 204 206 207 206 206 206 205 204 205 206 205 206 205 195 198 209 200 190 190 191 188 188 198 195 183 201 284 307 310 310 307 305 299 293 290 286 281 277
85 84 80 79 82 82 83 84 84 92 96 98 106 109 108 111 110 108 129 143 162 176 179 193 202 209 225 224 225 234 235 231 227 224 225 227 227 226 223 220 217 214 212 212 211 210 210 209 211 211 210 210 209 208 207 205 207 207 204 202 199 203 209 202 195 200 199 191 196 215 207 194 211 237 262 287 302 303 302 299 297 298 293 290 286
94 93 89 86 87 88 89 88 85 86 87 90 95 101 109 118 115 108 118 133 154 171 168 174 196 212 234 225 216 233 249 246 237 231 233 237 237 235 230 226 223 220 219 219 218 217 216 215 216 215 215 214 212 211 208 206 208 207 204 201 201 205 206 202 201 208 206 197 198 211 217 218 227 242 261 281 292 292 294 297 298 296 291 288 287
102 98 95 94 92 90 90 90 89 87 85 85 84 85 89 95 100 101 103 105 117 149 150 159 193 215 234 229 208 211 248 254 243 230 230 239 246 244 237 230 226 223 223 222 222 222 222 221 221 220 220 218 216 215 211 210 211 210 207 205 203 204 205 203 204 208 206 200 201 212 226 232 241 263 278 286 294 295 296 295 293 290 287 285 283
112 105 100 97 91 87 84 83 85 86 83 82 81 82 82 82 86 90 91 94 96 100 127 164 201 216 231 237 216 205 235 251 250 237 228 230 241 248 247 240 231 227 226 224 224 224 224 225 224 225 225 224 222 220 216 214 214 213 210 209 207 205 204 203 204 203 202 204 209 217 228 239 253 271 284 292 298 300 299 295 292 291 289 288 287
122 114 108 100 90 85 81 77 78 81 81 82 81 80 81 81 82 84 82 79 76 70 76 116 200 218 231 242 235 225 232 241 248 248 238 231 235 243 247 246 240 234 230 229 228 226 226 225 223 224 228 228 227 226 225 224 224 220 214 210 208 205 202 202 203 203 204 208 212 217 227 239 248 262 277 286 292 295 294 291 290 290 290 289 287
134 129 124 112 101 91 84 80 77 76 77 78 78 76 76 77 78 78 77 72 67 62 62 72 83 235 233 236 239 237 236 237 241 244 243 237 236 238 240 241 241 237 233 233 232 232 231 228 225 224 226 228 227 227 230 232 234 231 223 214 207 201 200 200 200 204 208 208 212 221 231 238 247 260 268 277 291 294 291 290 288 287 288 288 286
153 138 130 120 110 101 92 86 81 78 77 75 77 75 70 67 65 66 68 66 62 53 45 51 29 300 250 238 246 243 239 242 244 244 245 242 241 241 238 238 239 236 235 236 235 235 234 230 229 231 232 232 229 227 229 229 230 231 229 223 213 200 196 198 198 205 211 214 222 233 240 245 252 250 247 262 285 289 285 286 287 286 286 285 284
183 154 137 125 114 107 98 88 79 80 80 75 76 75 71 65 57 54 55 56 52 39 17 349 315 292 271 272 273 261 254 251 246 244 245 241 240 240 240 241 242 240 240 241 238 238 234 226 229 238 241 239 233 228 228 225 222 222 221 223 221 207 195 195 198 204 214 223 234 245 248 248 248 249 257 273 283 282 276 274 276 279 281 281 280
192 166 146 131 121 118 112 100 84 77 76 69 61 60 62 59 50 42 36 33 30 16 356 329 308 298 289 280 270 258 255 253 251 249 245 242 240 239 239 242 245 245 245 242 237 235 229 225 234 244 243 239 236 233 229 225 222 217 214 217 219 209 193 191 196 206 217 227 241 251 256 256 260 268 277 285 288 284 278 274 272 271 271 273 276
200 174 159 148 135 127 117 110 100 90 83 74 60 47 48 46 28 14 5 358 352 337 322 307 298 296 289 282 274 265 257 254 255 254 253 251 248 243 240 240 243 244 240 233 231 234 234 231 237 244 241 233 234 237 233 228 219 209 203 207 209 199 188 191 199 211 225 239 250 257 264 269 272 278 284 291 294 290 285 283 281 277 272 269 269
210 199 187 163 142 129 115 106 102 100 88 70 55 41 45 34 11 357 346 336 330 315 301 294 292 290 287 284 281 277 271 266 263 261 260 260 257 252 246 240 239 237 233 231 231 236 238 232 230 236 236 227 227 228 222 215 203 189 182 187 192 188 186 197 208 218 234 250 261 266 271 273 274 274 277 283 287 285 284 284 284 283 279 273 268
210 214 207 182 145 124 111 96 83 71 44 28 22 27 31 11 345 333 322 315 311 301 293 290 286 285 284 282 280 277 275 272 269 268 267 265 261 259 254 247 241 235 231 235 236 238 240 233 224 224 221 215 215 210 200 196 189 181 179 179 181 184 187 202 215 223 242 256 265 272 275 274 274 275 277 279 278 280 285 288 287 282 277 274 271
198 213 215 204 144 97 90 80 47 28 8 352 349 0 354 333 324 322 317 312 307 300 295 289 285 284 283 280 277 276 275 275 273 272 269 266 263 261 258 253 247 238 231 232 235 238 238 230 220 211 196 195 202 196 189 190 187 186 189 186 176 178 188 215 231 235 250 258 263 269 272 274 277 278 279 278 277 283 288 290 289 282 276 277 276
190 210 229 245 255 59 65 42 358 344 328 314 322 336 327 319 319 317 312 308 304 300 296 291 289 288 284 280 278 276 276 275 274 273 269 266 264 262 260 256 250 243 236 233 233 236 235 227 213 196 181 185 191 187 187 190 188 189 192 185 171 176 205 241 247 247 254 258 262 265 267 272 277 281 282 277 274 279 286 288 288 283 280 281 277
207 226 245 261 269 294 3 351 324 316 309 310 319 322 314 310 310 307 303 301 298 294 290 288 286 284 281 279 276 274 274 273 271 271 270 267 265 264 260 257 254 249 243 236 232 234 235 221 197 181 175 175 176 178 183 183 180 181 181 176 178 205 237 247 248 252 258 261 263 263 264 270 277 283 284 280 276 279 283 287 287 285 284 282 278
231 239 250 256 262 285 316 307 300 300 301 304 306 306 303 301 300 300 299 298 295 291 288 286 285 282 280 278 275 273 272 270 269 269 268 268 267 265 261 259 256 249 245 242 237 235 226 190 165 166 171 168 165 169 173 169 167 169 164 164 190 231 246 246 249 257 263 264 263 261 262 271 280 283 282 281 282 283 284 286 287 287 287 284 282
246 253 256 257 268 298 303 295 290 287 288 292 295 297 296 293 293 298 299 299 296 294 292 291 289 288 285 282 279 277 273 271 270 269 269 269 268 264 262 259 255 250 246 236 210 193 166 146 153 168 174 168 159 157 161 159 157 160 159 165 207 247 252 253 260 264 265 269 269 268 268 270 275 278 277 279 282 283 284 286 287 289 289 287 287
258 261 264 275 294 299 292 285 280 279 281 287 291 291 289 287 291 296 296 295 295 293 293 292 291 290 289 286 283 281 277 275 274 272 273 273 268 264 262 258 253 251 233 164 137 136 133 141 164 173 170 163 154 147 152 155 153 156 161 162 207 265 263 264 271 272 273 277 278 280 282 280 275 270 268 270 275 279 283 285 287 290 289 287 288
267 273 285 293 293 290 285 281 280 281 283 284 285 284 283 283 286 288 289 290 291 292 292 291 291 289 288 286 284 282 279 276 275 274 274 272 267 265 263 249 219 180 142 127 129 142 146 149 158 159 156 153 148 144 147 151 152 161 169 165 195 281 279 279 283 284 286 285 283 287 290 286 269 255 259 270 280 286 290 289 288 288 286 285 289
281 290 296 292 290 291 289 286 284 283 281 281 280 280 279 279 281 282 285 287 289 290 289 288 288 288 286 285 284 284 282 280 278 276 273 270 268 263 250 221 186 163 150 142 142 148 144 139 141 144 144 146 146 145 147 153 158 166 175 163 118 298 292 295 297 292 288 287 288 292 296 297 288 280 290 299 300 299 298 295 289 284 281 282 286
282 283 281 282 283 282 281 281 283 282 279 278 278 278 278 279 280 281 283 286 287 287 286 286 286 286 286 286 286 285 284 280 277 274 271 271 268 248 208 190 177 161 152 147 145 143 136 132 134 137 140 146 152 152 152 160 166 168 201 287 309 286 285 294 298 292 288 289 291 290 289 290 293 297 300 303 302 300 298 294 289 285 283 283 284
284 282 282 283 282 280 279 279 281 280 279 278 278 278 278 278 278 280 284 286 285 284 283 283 283 284 285 286 286 284 281 276 272 269 269 267 255 203 171 171 161 146 142 141 141 139 135 132 134 136 142 152 159 161 162 165 167 188 286 294 296 295 297 301 298 291 292 294 292 290 289 289 292 295 298 302 305 303 300 296 292 290 290 288 285
287 288 288 286 282 280 280 279 278 278 279 279 278 279 279 278 279 282 283 283 282 281 281 280 281 282 284 284 284 283 280 278 275 272 267 249 210 172 160 158 150 144 144 143 140 138 136 136 138 143 153 161 164 162 157 140 93 0 329 320 326 329 327 324 313 298 292 293 293 293 295 297 300 303 305 308 310 307 304 301 298 297 297 292 286
286 285 284 282 280 278 277 277 277 279 280 280 279 279 279 278 279 280 280 280 280 280 280 281 282 284 285 285 287 288 285 282 278 272 253 208 179 164 151 147 146 146 145 141 140 140 142 146 152 156 159 163 164 163 161 128 19 1 351 342 340 338 332 328 321 304 292 295 297 296 299 303 306 308 310 311 309 307 306 303 300 300 296 289 282
283 282 282 282 282 281 279 277 278 279 279 279 277 276 276 278 279 278 277 277 278 279 280 283 285 287 289 290 290 289 284 277 268 256 226 190 175 163 151 149 148 145 142 143 148 153 155 157 157 153 149 149 152 158 164 168 346 336 327 331 335 334 329 326 321 312 310 314 311 307 308 309 308 308 309 308 306 304 304 301 299 298 291 282 276
281 283 285 284 282 280 280 280 280 280 279 279 277 276 276 277 276 274 273 274 276 278 281 283 284 286 288 287 285 280 269 259 245 213 188 177 167 156 152 153 153 150 150 154 156 155 154 149 144 140 138 137 135 131 126 111 40 352 328 329 335 336 334 331 324 320 324 323 316 315 318 316 313 312 311 310 308 306 304 302 301 299 293 286 282
278 281 283 283 281 280 280 280 279 278 277 277 276 276 276 276 274 272 273 275 278 281 282 281 282 284 283 281 278 261 234 223 197 168 163 160 153 148 148 151 154 151 148 147 146 145 144 141 137 136 135 131 121 105 87 73 52 25 357 344 343 341 340 338 331 325 324 322 320 321 322 321 318 316 314 313 311 308 308 307 304 302 299 295 291
280 281 282 283 282 282 280 279 278 276 274 274 273 273 274 275 275 275 278 282 283 283 282 280 279 279 274 264 246 215 198 180 150 136 136 137 138 140 138 136 142 145 140 136 135 133 131 127 123 122 123 118 110 102 96 88 70 38 14 1 352 348 349 349 346 341 335 330 328 327 323 321 320 316 312 312 311 310 310 308 305 303 301 296 293
281 281 280 279 278 278 279 278 277 276 274 273 272 273 275 274 274 278 285 287 286 283 279 273 266 258 242 215 188 168 157 145 129 119 117 115 118 124 123 121 127 132 129 126 124 122 124 122 116 113 116 119 117 114 106 88 60 31 19 15 10 8 6 2 -0 357 347 333 328 327 325 323 320 318 315 312 311 311 310 307 305 304 300 296 293
279 279 279 280 281 281 281 280 279 278 275 273 273 275 277 274 278 287 290 287 283 273 262 251 230 206 180 161 153 146 140 135 126 120 115 110 107 108 109 112 118 122 121 120 120 122 126 126 122 120 121 119 114 106 94 71 44 25 20 23 23 16 8 4 3 354 332 316 322 329 327 324 321 317 314 311 309 310 309 306 305 303 299 296 294